Temp
-17 -17 -16 -16 -16 -16 -16 -15 -15 -15 -15 -14 -14 -14 -14 -14 -14 -14 -14 -15 -15 -14 -15 -15 -15 -15 -15 -15 -16 -15 -16 -16 -16 -16 -17 -17 -17 -17 -17 -17 -17 -17 -19
-16 -17 -17 -17 -16 -15 -15 -15 -15 -15 -15 -15 -15 -15 -15 -14 -14 -15 -14 -15 -14 -15 -15 -15 -15 -15 -16 -16 -16 -16 -16 -17 -18 -18 -18 -18 -18 -18 -18 -18 -18 -19 -19
-16 -16 -16 -16 -16 -15 -15 -15 -15 -15 -16 -15 -15 -15 -15 -15 -15 -15 -15 -15 -15 -15 -15 -15 -15 -16 -17 -17 -17 -18 -17 -17 -17 -17 -18 -18 -18 -19 -19 -19 -19 -19 -20
-16 -16 -16 -16 -15 -15 -15 -15 -15 -15 -15 -16 -16 -16 -17 -17 -16 -16 -16 -17 -17 -17 -17 -17 -17 -17 -17 -16 -16 -16 -17 -17 -17 -18 -19 -19 -19 -19 -20 -20 -20 -20 -20
-16 -16 -16 -16 -16 -15 -15 -15 -15 -15 -15 -15 -15 -16 -16 -16 -16 -16 -17 -17 -16 -16 -16 -16 -16 -16 -16 -17 -17 -17 -17 -18 -18 -19 -19 -19 -20 -20 -20 -20 -20 -20 -20
-15 -15 -15 -15 -15 -15 -15 -15 -15 -15 -15 -15 -15 -15 -15 -15 -15 -15 -15 -16 -16 -16 -16 -16 -16 -16 -17 -17 -17 -17 -17 -18 -19 -19 -19 -20 -20 -20 -20 -20 -20 -20 -20
-15 -15 -15 -15 -15 -16 -16 -16 -16 -16 -15 -15 -15 -15 -15 -16 -16 -15 -16 -15 -16 -16 -16 -17 -17 -17 -17 -17 -18 -18 -18 -20 -21 -20 -20 -20 -21 -21 -20 -20 -20 -20 -20
-15 -15 -15 -15 -15 -15 -15 -16 -16 -16 -16 -16 -16 -16 -16 -16 -16 -16 -16 -16 -16 -17 -17 -17 -17 -17 -17 -18 -18 -18 -20 -21 -21 -21 -21 -21 -21 -21 -20 -20 -20 -20 -20
-15 -15 -15 -15 -15 -15 -15 -15 -16 -16 -16 -16 -16 -16 -16 -16 -16 -16 -16 -16 -17 -17 -17 -17 -17 -17 -18 -18 -18 -19 -20 -21 -20 -21 -21 -21 -21 -20 -20 -20 -20 -20 -20
-15 -15 -15 -15 -15 -15 -15 -15 -15 -16 -16 -16 -16 -16 -16 -16 -16 -16 -16 -17 -17 -17 -17 -17 -17 -18 -18 -18 -18 -19 -19 -20 -21 -21 -21 -20 -20 -21 -20 -20 -20 -20 -20
-14 -15 -15 -15 -15 -15 -15 -16 -16 -16 -16 -16 -16 -16 -16 -16 -16 -16 -16 -17 -17 -17 -17 -17 -17 -17 -18 -18 -18 -18 -19 -20 -20 -20 -20 -20 -20 -20 -20 -20 -20 -20 -20
-14 -15 -15 -15 -15 -15 -16 -16 -16 -16 -16 -16 -16 -17 -17 -17 -17 -17 -17 -17 -17 -17 -18 -18 -18 -18 -18 -18 -18 -18 -19 -20 -20 -20 -20 -20 -20 -20 -20 -20 -20 -20 -20
-14 -14 -15 -15 -15 -15 -15 -16 -16 -16 -16 -16 -16 -17 -17 -17 -17 -17 -17 -17 -18 -18 -18 -18 -18 -18 -18 -18 -19 -19 -19 -19 -19 -20 -20 -20 -20 -20 -20 -20 -20 -20 -20
-14 -14 -14 -15 -15 -15 -15 -15 -16 -16 -16 -16 -16 -16 -17 -17 -17 -18 -18 -18 -18 -18 -18 -18 -18 -19 -19 -19 -19 -19 -19 -19 -19 -20 -20 -20 -20 -20 -20 -20 -20 -20 -20
-15 -15 -15 -15 -15 -15 -15 -15 -15 -16 -16 -16 -16 -16 -17 -17 -17 -17 -18 -18 -18 -19 -19 -19 -19 -19 -19 -19 -19 -19 -20 -20 -20 -20 -20 -20 -20 -20 -20 -20 -20 -21 -21
-15 -15 -15 -15 -15 -15 -15 -15 -16 -16 -16 -16 -16 -16 -17 -17 -17 -17 -18 -18 -19 -19 -19 -19 -19 -19 -19 -20 -20 -20 -20 -20 -20 -20 -20 -20 -20 -20 -21 -21 -21 -21 -21
-15 -15 -15 -15 -15 -15 -15 -15 -15 -16 -16 -16 -16 -16 -16 -17 -17 -17 -17 -18 -18 -19 -20 -20 -20 -20 -20 -20 -20 -20 -20 -20 -20 -20 -20 -21 -21 -21 -21 -21 -21 -21 -21
-16 -16 -16 -16 -16 -16 -16 -16 -16 -16 -16 -16 -16 -17 -17 -17 -17 -17 -17 -18 -18 -18 -19 -20 -21 -21 -21 -21 -21 -21 -21 -21 -21 -21 -21 -21 -21 -21 -21 -22 -22 -22 -22
-16 -16 -16 -16 -16 -16 -16 -16 -16 -16 -16 -16 -16 -17 -17 -17 -17 -17 -18 -18 -18 -18 -19 -19 -20 -20 -20 -21 -21 -21 -21 -22 -22 -22 -23 -23 -22 -22 -22 -22 -22 -22 -22
-17 -17 -17 -17 -17 -17 -17 -17 -17 -17 -17 -17 -17 -17 -17 -17 -18 -18 -18 -18 -18 -18 -18 -18 -19 -19 -20 -20 -21 -21 -21 -22 -22 -22 -22 -23 -23 -24 -23 -23 -23 -23 -23
-16 -16 -17 -17 -17 -17 -17 -17 -18 -18 -18 -18 -18 -18 -18 -18 -18 -18 -18 -19 -19 -19 -19 -19 -19 -19 -19 -19 -20 -20 -21 -22 -22 -22 -23 -22 -22 -22 -23 -23 -23 -23 -23
-17 -17 -17 -17 -17 -17 -17 -18 -18 -18 -19 -18 -19 -19 -19 -19 -19 -19 -19 -19 -19 -19 -19 -19 -19 -19 -19 -19 -20 -20 -20 -20 -21 -23 -23 -23 -23 -23 -23 -22 -22 -22 -22
-17 -17 -17 -17 -17 -17 -17 -18 -18 -18 -19 -19 -20 -20 -20 -20 -20 -20 -20 -20 -20 -20 -20 -20 -20 -20 -20 -20 -20 -20 -20 -21 -21 -21 -23 -23 -23 -23 -23 -23 -23 -22 -23
-18 -18 -18 -18 -18 -18 -18 -18 -18 -18 -18 -18 -19 -19 -20 -20 -20 -21 -21 -20 -20 -20 -20 -20 -20 -20 -20 -20 -20 -21 -21 -21 -22 -22 -23 -23 -24 -24 -24 -24 -23 -23 -23
-18 -18 -18 -18 -18 -18 -18 -18 -19 -18 -18 -18 -19 -19 -19 -20 -20 -20 -20 -20 -20 -20 -20 -20 -21 -21 -21 -21 -21 -21 -22 -22 -23 -23 -23 -24 -24 -24 -24 -24 -23 -23 -23
-18 -18 -18 -19 -19 -18 -19 -19 -19 -19 -19 -19 -19 -19 -19 -19 -19 -20 -20 -20 -21 -21 -21 -21 -21 -21 -21 -21 -21 -22 -22 -23 -23 -23 -23 -24 -24 -24 -24 -24 -24 -24 -24
Height
5659 5659 5659 5661 5664 5666 5669 5672 5675 5679 5685 5690 5695 5701 5706 5710 5714 5718 5721 5723 5725 5726 5725 5725 5724 5724 5723 5723 5722 5722 5720 5719 5718 5716 5715 5713 5711 5709 5707 5706 5705 5702 5699
5668 5668 5667 5666 5667 5668 5671 5675 5679 5682 5685 5689 5694 5699 5703 5707 5710 5714 5716 5717 5718 5717 5718 5717 5717 5717 5717 5716 5716 5713 5711 5709 5709 5708 5706 5705 5703 5702 5701 5699 5698 5696 5696
5675 5674 5673 5674 5675 5675 5678 5682 5683 5685 5686 5689 5693 5697 5700 5703 5706 5708 5711 5711 5711 5712 5712 5712 5711 5711 5710 5709 5708 5708 5707 5705 5703 5702 5701 5699 5698 5697 5696 5695 5694 5694 5693
5684 5682 5680 5680 5680 5680 5681 5682 5685 5688 5690 5692 5694 5697 5698 5700 5702 5703 5704 5705 5706 5706 5708 5708 5707 5707 5707 5705 5703 5701 5700 5697 5696 5694 5694 5694 5693 5693 5692 5691 5691 5691 5691
5690 5689 5688 5687 5685 5684 5685 5686 5687 5689 5690 5692 5694 5696 5697 5700 5701 5702 5702 5703 5704 5704 5704 5704 5703 5702 5700 5698 5696 5694 5691 5689 5688 5687 5687 5687 5688 5689 5689 5690 5690 5690 5689
5694 5692 5689 5687 5687 5688 5688 5689 5689 5689 5689 5690 5692 5695 5696 5698 5699 5700 5700 5700 5700 5700 5700 5698 5698 5697 5695 5693 5690 5686 5683 5680 5679 5680 5682 5684 5685 5687 5688 5688 5688 5688 5687
5701 5698 5695 5692 5690 5690 5690 5690 5690 5690 5691 5693 5694 5696 5697 5697 5697 5697 5697 5697 5697 5696 5695 5695 5695 5693 5691 5687 5684 5680 5674 5672 5674 5677 5679 5681 5683 5685 5685 5685 5686 5686 5685
5707 5705 5703 5700 5698 5695 5692 5691 5691 5692 5693 5693 5694 5695 5695 5694 5695 5695 5695 5695 5693 5693 5692 5692 5691 5689 5688 5683 5680 5676 5672 5671 5674 5676 5679 5682 5683 5683 5683 5684 5684 5684 5684
5713 5710 5707 5705 5703 5700 5698 5696 5694 5694 5694 5694 5695 5695 5695 5695 5695 5695 5694 5693 5690 5689 5689 5688 5688 5687 5683 5681 5678 5675 5674 5674 5675 5677 5678 5679 5680 5681 5682 5682 5683 5682 5681
5714 5713 5711 5708 5706 5704 5703 5701 5699 5698 5698 5697 5696 5695 5694 5693 5693 5693 5691 5690 5689 5688 5687 5686 5685 5683 5681 5680 5678 5677 5675 5674 5674 5676 5677 5678 5678 5679 5680 5681 5680 5679 5677
5712 5712 5711 5710 5708 5707 5705 5703 5702 5701 5699 5699 5699 5698 5697 5695 5694 5693 5691 5690 5689 5688 5687 5685 5684 5683 5681 5680 5679 5677 5677 5676 5676 5676 5677 5678 5678 5678 5678 5678 5677 5675 5674
5712 5710 5708 5708 5707 5707 5706 5706 5704 5702 5701 5700 5699 5697 5696 5696 5694 5693 5691 5690 5689 5688 5686 5685 5685 5683 5682 5680 5679 5678 5676 5676 5677 5677 5676 5676 5677 5676 5675 5674 5672 5670 5668
5710 5708 5707 5706 5705 5705 5703 5703 5703 5702 5700 5699 5697 5696 5694 5693 5692 5691 5690 5689 5688 5687 5686 5685 5683 5682 5682 5681 5680 5678 5677 5676 5675 5675 5674 5674 5674 5673 5671 5669 5667 5665 5663
5705 5704 5704 5702 5701 5701 5701 5700 5698 5696 5696 5695 5694 5693 5691 5689 5688 5687 5686 5684 5683 5683 5683 5682 5681 5680 5679 5677 5676 5676 5675 5674 5673 5672 5670 5670 5668 5667 5665 5664 5662 5659 5658
5698 5698 5698 5697 5697 5696 5694 5694 5693 5692 5690 5689 5688 5687 5686 5685 5684 5682 5681 5679 5677 5677 5675 5675 5675 5675 5674 5673 5671 5670 5669 5668 5667 5666 5665 5664 5662 5660 5658 5656 5654 5652 5650
5690 5690 5690 5690 5689 5688 5688 5687 5686 5686 5685 5683 5682 5680 5679 5678 5677 5676 5675 5674 5672 5670 5669 5668 5667 5667 5666 5666 5665 5664 5662 5661 5660 5658 5657 5656 5654 5652 5650 5648 5646 5644 5642
5681 5682 5681 5681 5681 5680 5679 5679 5679 5678 5677 5676 5674 5674 5673 5671 5669 5668 5668 5666 5664 5662 5661 5660 5659 5658 5657 5657 5657 5657 5656 5654 5653 5651 5649 5647 5645 5643 5640 5638 5636 5634 5631
5671 5671 5671 5671 5671 5671 5670 5669 5669 5668 5667 5666 5666 5664 5663 5662 5661 5660 5658 5657 5655 5653 5652 5649 5647 5646 5646 5645 5643 5642 5641 5642 5641 5639 5638 5635 5633 5631 5628 5625 5623 5620 5619
5660 5659 5659 5659 5659 5659 5659 5658 5657 5656 5655 5655 5654 5653 5651 5651 5650 5649 5647 5646 5644 5642 5639 5637 5636 5634 5632 5631 5630 5629 5627 5626 5625 5624 5622 5620 5618 5616 5614 5611 5609 5606 5604
5647 5647 5646 5646 5646 5646 5646 5646 5645 5644 5643 5642 5641 5640 5639 5640 5639 5638 5637 5636 5634 5632 5630 5627 5624 5621 5619 5617 5616 5614 5612 5611 5609 5607 5605 5602 5599 5597 5596 5594 5591 5590 5588
5633 5631 5631 5632 5632 5631 5632 5631 5631 5631 5630 5629 5628 5626 5625 5626 5626 5625 5623 5622 5621 5619 5617 5615 5613 5610 5606 5603 5601 5598 5596 5593 5592 5591 5588 5585 5582 5579 5577 5575 5574 5571 5570
5619 5618 5617 5616 5616 5616 5615 5615 5615 5615 5615 5615 5613 5612 5612 5612 5611 5610 5608 5606 5605 5603 5602 5600 5598 5595 5592 5589 5586 5584 5582 5578 5574 5572 5570 5567 5566 5564 5561 5557 5555 5553 5552
5603 5603 5603 5602 5602 5601 5601 5600 5599 5598 5597 5596 5595 5595 5594 5595 5594 5593 5593 5591 5589 5587 5585 5584 5582 5579 5577 5574 5571 5568 5565 5561 5558 5554 5552 5550 5549 5547 5544 5543 5540 5537 5535
5586 5586 5587 5587 5586 5586 5585 5584 5583 5582 5581 5579 5578 5577 5577 5577 5576 5576 5575 5574 5573 5571 5569 5567 5565 5563 5559 5556 5554 5550 5547 5545 5541 5537 5534 5532 5531 5530 5529 5527 5525 5521 5520
5568 5568 5567 5567 5567 5567 5566 5566 5566 5565 5564 5563 5562 5561 5560 5559 5558 5557 5557 5556 5555 5553 5551 5549 5546 5544 5542 5539 5536 5533 5530 5527 5524 5521 5518 5515 5514 5513 5512 5511 5508 5506 5503
5551 5551 5550 5549 5549 5548 5547 5547 5546 5546 5546 5545 5544 5543 5542 5541 5541 5540 5539 5538 5537 5535 5532 5529 5528 5526 5524 5521 5519 5516 5513 5510 5507 5503 5501 5499 5498 5496 5494 5492 5490 5488 5486
Wind_Speed
20 35 28 23 8 11 11 8 7 7 18 24 29 32 32 28 25 25 29 31 27 32 35 35 31 27 27 29 30 31 31 29 30 30 28 29 30 31 31 15 21 22 10
24 17 23 27 20 17 7 5 4 7 7 8 16 24 28 31 33 31 27 34 35 30 31 28 29 24 29 31 34 34 34 32 31 31 29 25 19 18 19 9 6 8 7
30 25 20 22 23 18 10 5 2 2 3 3 6 11 13 14 19 24 25 26 35 32 28 26 29 30 31 33 34 33 31 32 31 29 25 18 11 14 10 11 11 9 8
24 26 26 24 16 16 13 12 7 6 6 7 7 9 10 12 14 13 15 17 19 22 25 26 25 26 27 28 30 30 31 31 29 26 22 13 12 16 13 13 10 10 11
18 18 18 17 17 17 12 8 7 7 5 4 6 9 9 11 11 11 14 14 16 19 21 23 25 25 27 28 29 30 30 30 29 23 17 12 14 12 9 8 9 9 7
30 28 22 14 10 9 9 8 8 7 4 3 2 4 7 9 11 12 15 16 17 17 18 19 21 22 22 25 30 33 35 36 31 19 13 12 13 9 7 8 9 7 7
24 25 27 29 26 18 9 2 2 4 4 4 4 3 3 4 7 9 11 13 15 16 15 12 16 16 21 22 20 26 28 24 15 13 16 13 9 8 10 10 8 7 8
19 20 21 22 23 25 22 15 12 8 4 3 5 7 7 7 8 9 9 10 10 10 12 13 13 16 18 17 18 20 10 2 6 7 6 8 7 9 8 6 7 9 11
19 18 16 16 18 20 20 21 17 12 9 7 4 1 2 5 7 9 10 11 9 11 12 13 15 14 14 11 12 13 7 1 3 7 9 9 6 5 5 6 9 13 15
13 14 15 15 16 16 16 16 16 17 15 13 11 9 7 4 3 5 6 7 7 8 8 9 10 11 11 11 9 8 5 1 5 7 6 4 6 7 6 9 14 16 19
11 12 13 14 14 13 14 13 12 11 11 11 9 9 8 7 7 7 8 7 8 8 8 6 7 8 7 6 6 6 4 2 6 6 8 8 8 9 10 13 16 19 20
8 9 11 12 14 15 13 10 11 11 10 10 9 9 9 9 9 8 8 8 9 9 9 9 10 9 8 7 6 4 3 5 7 9 9 10 11 13 16 17 18 20 22
8 10 9 10 11 13 14 14 12 12 11 11 11 11 11 10 11 11 12 14 14 12 12 12 11 11 12 11 10 10 9 10 12 13 13 15 16 19 21 21 22 23 25
7 7 9 11 13 14 14 15 16 16 16 17 16 16 16 16 16 15 16 15 16 17 19 19 18 18 18 17 18 18 19 19 19 19 19 20 23 24 26 26 27 27 28
12 10 10 10 13 14 16 18 18 18 17 18 19 19 20 20 20 20 21 22 23 20 19 22 25 27 26 25 25 24 24 24 24 25 27 29 30 31 31 32 32 33 33
18 17 14 14 15 16 17 17 19 21 23 24 24 21 22 23 25 24 24 25 25 24 24 24 25 27 30 31 31 31 31 31 32 33 35 37 38 38 38 38 37 38 39
23 22 21 21 20 19 19 20 19 20 23 24 25 26 25 25 28 28 28 26 29 31 31 28 29 32 33 34 36 37 38 39 41 43 44 45 45 45 44 44 44 44 45
28 28 28 27 25 24 25 25 24 24 24 25 26 26 28 27 28 29 29 29 32 37 38 36 36 36 35 39 43 45 45 47 47 48 49 50 50 50 50 50 51 51 52
33 33 33 31 30 30 30 30 30 29 28 28 29 29 32 31 31 31 33 32 34 39 42 43 41 39 39 39 40 41 46 52 56 58 57 55 56 58 58 58 59 60 60
40 39 39 37 36 35 36 35 35 34 33 33 33 34 35 36 33 31 34 35 34 36 39 43 47 47 45 44 42 43 45 47 50 49 60 67 66 65 66 65 64 66 67
48 48 46 44 42 41 41 42 42 41 40 39 39 39 38 39 37 38 37 37 36 37 38 40 43 48 51 51 52 53 52 51 53 53 55 59 59 64 67 68 74 76 78
47 48 49 50 48 47 47 48 48 47 46 46 46 45 45 43 42 42 42 41 42 43 43 43 44 44 47 51 54 56 58 59 54 54 58 62 58 52 51 59 62 59 59
52 51 50 50 52 53 52 52 53 54 53 53 53 52 50 49 49 49 48 48 46 46 46 47 48 47 48 50 51 55 57 58 59 56 54 57 61 60 61 58 55 50 47
50 46 49 53 56 57 56 57 58 59 60 60 59 59 57 56 56 55 55 57 51 49 49 51 52 52 51 52 55 56 57 57 57 56 54 50 51 56 64 60 66 52 51
57 54 50 50 55 57 58 59 61 64 64 65 65 65 64 63 64 64 63 61 54 53 53 54 55 55 55 55 56 59 59 57 57 54 54 51 51 51 53 58 61 60 59
56 55 55 53 52 53 54 55 57 61 66 68 68 68 68 68 67 67 65 64 60 58 58 58 59 60 59 59 59 61 62 61 60 59 57 56 57 55 54 53 55 55 56
Wind_Direction
46 40 42 44 105 105 114 129 128 179 206 213 214 218 226 229 229 242 243 247 255 264 267 268 272 275 254 254 251 248 252 264 277 293 298 300 299 292 298 285 299 289 282
49 50 58 48 39 44 91 89 118 130 155 191 218 230 236 239 239 244 252 245 253 251 262 251 252 246 245 258 257 263 274 312 311 308 306 310 312 308 304 310 281 271 274
50 55 54 57 57 41 23 13 291 312 33 84 177 197 217 232 234 233 244 252 255 265 242 253 263 279 303 310 318 313 307 300 296 292 291 294 279 277 275 275 284 278 278
47 50 54 56 55 58 60 42 359 359 317 291 348 345 331 325 310 297 298 309 310 306 313 314 311 305 298 297 297 294 293 291 291 289 289 275 260 272 261 268 265 266 276
33 34 40 45 49 58 58 56 65 57 50 21 337 315 320 310 296 291 300 292 285 292 290 293 298 299 299 299 299 298 294 291 288 288 284 256 265 270 268 262 273 282 288
46 46 46 40 30 29 37 47 57 72 96 119 175 244 252 266 279 280 277 280 282 281 282 283 290 295 298 301 297 294 291 286 280 278 247 238 257 261 260 265 277 266 284
41 44 47 46 44 45 41 348 340 9 11 11 9 335 310 307 307 300 290 286 285 288 292 297 300 305 311 307 306 312 299 284 269 229 233 231 241 234 246 260 262 284 303
28 35 37 44 45 46 45 47 53 58 47 340 308 296 301 301 291 290 293 294 302 299 300 305 301 313 322 323 321 336 1 348 237 235 264 241 231 247 262 267 278 295 296
5 10 23 26 36 40 45 46 46 42 47 52 66 14 324 289 287 289 289 292 304 303 299 297 301 306 327 341 353 2 20 333 258 228 224 218 236 250 256 277 291 297 294
347 351 356 6 15 28 34 38 45 50 52 52 50 47 43 30 2 349 347 350 340 329 320 313 313 314 317 323 334 353 19 183 209 200 192 212 230 244 267 289 298 301 302
328 337 337 343 350 353 3 11 20 23 27 31 27 22 25 33 39 36 28 15 4 2 358 358 356 353 349 356 7 22 41 134 168 199 228 236 244 259 280 295 300 302 307
318 322 323 329 330 330 333 333 337 340 343 349 348 348 350 356 353 348 336 338 333 327 321 321 320 320 319 321 321 301 231 222 232 235 236 245 256 274 287 295 301 307 311
290 297 300 303 303 311 315 317 313 303 299 303 308 312 315 317 320 324 324 321 314 311 313 312 310 307 307 304 294 279 266 254 251 254 257 263 273 284 290 294 300 305 311
271 280 293 286 285 287 289 294 297 301 307 307 302 295 294 297 302 302 302 303 303 303 299 298 295 291 287 281 278 277 276 272 268 267 267 270 276 283 288 291 294 298 303
272 271 281 290 294 284 277 276 279 282 286 291 293 295 296 295 293 289 288 290 292 292 289 286 287 288 285 279 275 272 270 270 270 271 274 277 279 281 284 287 290 295 299
275 276 277 274 281 288 286 276 271 272 277 279 279 281 286 291 293 294 295 295 294 293 287 281 283 284 283 281 277 273 270 270 270 271 274 277 279 280 282 285 288 292 296
267 271 275 275 275 276 275 278 279 272 270 271 273 273 279 277 282 287 291 292 295 294 291 292 287 277 278 280 280 279 278 278 279 280 280 280 280 281 283 285 287 289 292
265 268 267 266 268 269 270 272 272 271 269 272 273 273 274 274 280 277 276 281 292 292 296 290 282 283 284 280 274 270 272 278 279 280 280 280 280 279 279 280 281 283 287
259 261 263 264 264 264 264 263 264 264 266 267 271 271 270 272 278 276 273 274 283 286 290 293 292 289 287 282 281 278 275 273 273 274 274 277 278 279 279 280 281 282 283
255 255 257 259 262 262 260 258 257 258 260 261 260 264 268 271 275 273 275 278 277 279 282 284 286 289 290 290 289 283 280 278 279 280 279 273 271 271 273 275 276 277 280
268 262 256 257 257 258 260 259 258 257 256 256 259 257 258 263 268 270 268 271 275 277 277 279 282 283 284 287 289 292 291 283 276 276 278 279 283 284 283 285 284 283 279
268 267 270 267 260 258 258 259 257 256 256 256 256 258 258 259 263 266 269 269 271 274 276 278 278 279 280 283 286 287 287 292 294 280 275 275 274 280 284 280 280 278 284
268 269 270 270 266 266 268 265 264 260 255 254 256 257 257 257 259 264 267 268 268 272 276 279 277 278 279 278 280 284 286 288 291 293 289 281 276 279 277 279 280 278 286
265 268 271 271 270 269 273 274 271 268 264 261 259 257 257 259 260 261 263 267 269 269 271 275 278 277 279 280 279 280 284 288 289 291 292 290 290 285 281 282 282 280 278
268 264 260 259 264 267 270 273 271 270 270 269 268 267 262 260 261 263 267 271 270 271 271 273 274 273 276 280 282 281 280 282 284 285 287 287 288 287 283 284 283 279 283
268 267 267 266 267 266 266 268 271 274 273 272 271 270 269 269 270 269 270 272 272 273 274 273 273 273 277 281 283 282 280 279 279 280 281 282 284 284 285 286 285 282 283